Weather History for KRIC - December, 2012

Change the Weather History Date:

Tuesday, December 11, 2012

  Actual Average Record
Temperature  
Mean Temperature 55 °F 42 °F  
Max Temperature 65 °F 52 °F 72 °F (1971)
Min Temperature 44 °F 32 °F 12 °F (1968)
Degree Days  
Heating Degree Days 10 23  
Month to date heating degree days 135 237  
Since 1 July heating degree days 890 913  
Cooling Degree Days 0 0  
Month to date cooling degree days 0 0  
Year to date cooling degree days 1744 1548  
Growing Degree Days 4 (Base 50)    
Moisture  
Dew Point 40 °F    
Average Humidity 67    
Maximum Humidity 84    
Minimum Humidity 50    
Precipitation  
Precipitation 0.00 in 0.11 in 2.62 in (2008)
Month to date precipitation 0.22 1.22  
Year to date precipitation 33.91 41.56  
Snow  
Snow 0.00 in 0.10 in 6.70 in (1958)
Month to date snowfall 0.0 0.6  
Since 1 July snowfall 0.0 0.8  
Snow Depth 0.00 in    
Sea Level Pressure  
Sea Level Pressure 29.96 in    
Wind  
Wind Speed 10 mph (NNE)    
Max Wind Speed 18 mph    
Max Gust Speed 25 mph    
Visibility 10 miles    
Events      
T = Trace of Precipitation, MM = Missing Value Source: NWS Daily Summary

Daily Weather History Graph

Daily Weather History Graph

Search for Another Location

Airport or City:

Trip Planner

Search our weather history database for the weather conditions in past years. The results will help you decide how hot, cold, wet, or windy it might be!

Date:

Astronomy

Dec. 11, 2012 Rise Set
Actual Time 7:14 AM EST 4:51 PM EST
Civil Twilight 6:45 AM EST 5:20 PM EST
Nautical Twilight 6:12 AM EST 5:53 PM EST
Astronomical Twilight 5:40 AM EST 6:25 PM EST
Moon 5:07 AM EST (12/11) 3:27 PM EST (12/11)
Length of Visible Light 10h 35m
Length of Day
9h 37m
Waning Crescent, 4% of the Moon is Illuminated
Dec 11
Waning Crescent
Dec 13
New
Dec 20
First Quarter
Dec 28
Full
Jan 4
Last Quarter

Hourly Weather History & Observations

Time (EST) Temp. Windchill Dew Point Humidity Pressure Visibility Wind Dir Wind Speed Gust Speed Precip Events Conditions
12:54 AM 64.0 °F - 57.0 °F 78% 29.68 in 10.0 mi SSW 15.0 mph 21.9 mph N/A   Overcast
1:54 AM 64.0 °F - 57.0 °F 78% 29.71 in 10.0 mi SSW 9.2 mph - N/A   Overcast
2:54 AM 64.0 °F - 57.0 °F 78% 29.73 in 10.0 mi SSW 11.5 mph - N/A   Mostly Cloudy
3:54 AM 63.0 °F - 57.0 °F 81% 29.75 in 10.0 mi SW 6.9 mph - N/A   Mostly Cloudy
4:46 AM 60.8 °F - 53.6 °F 77% 29.77 in 10.0 mi North 15.0 mph 21.9 mph N/A   Overcast
4:54 AM 57.0 °F - 50.0 °F 77% 29.79 in 10.0 mi North 17.3 mph - N/A   Overcast
5:54 AM 51.1 °F - 43.0 °F 74% 29.85 in 10.0 mi North 12.7 mph - N/A   Overcast
6:54 AM 50.0 °F - 39.2 °F 66% 29.86 in 10.0 mi North 12.7 mph - N/A   Overcast
7:05 AM 48.2 °F - 39.2 °F 71% 29.87 in 10.0 mi North 12.7 mph - N/A   Overcast
7:54 AM 48.9 °F - 37.9 °F 66% 29.91 in 10.0 mi North 12.7 mph - N/A   Mostly Cloudy
8:54 AM 48.0 °F - 37.9 °F 68% 29.96 in 10.0 mi NNE 18.4 mph 23.0 mph N/A   Mostly Cloudy
9:54 AM 48.9 °F - 37.0 °F 64% 29.98 in 10.0 mi NNE 13.8 mph 19.6 mph N/A   Overcast
10:54 AM 50.0 °F - 36.0 °F 59% 30.01 in 10.0 mi NE 10.4 mph - N/A   Mostly Cloudy
11:54 AM 51.1 °F - 36.0 °F 56% 30.01 in 10.0 mi NE 10.4 mph - N/A   Overcast
12:54 PM 52.0 °F - 35.1 °F 53% 30.01 in 10.0 mi NNE 8.1 mph - N/A   Overcast
1:54 PM 52.0 °F - 35.1 °F 53% 30.02 in 10.0 mi North 6.9 mph - N/A   Overcast
2:54 PM 52.0 °F - 35.1 °F 53% 30.04 in 10.0 mi North 8.1 mph - N/A   Overcast
3:54 PM 50.0 °F - 35.1 °F 57% 30.06 in 10.0 mi NNE 8.1 mph - N/A   Overcast
4:54 PM 48.9 °F - 34.0 °F 56% 30.09 in 10.0 mi NE 5.8 mph - N/A   Overcast
5:54 PM 48.9 °F - 34.0 °F 56% 30.12 in 10.0 mi NE 4.6 mph - N/A   Overcast
6:54 PM 48.9 °F - 34.0 °F 56% 30.13 in 10.0 mi NNE 8.1 mph - N/A   Overcast
7:54 PM 48.0 °F - 34.0 °F 58% 30.16 in 10.0 mi NE 6.9 mph - N/A   Overcast
8:54 PM 48.0 °F - 30.9 °F 52% 30.18 in 10.0 mi NNE 10.4 mph - N/A   Overcast
9:54 PM 46.9 °F - 30.0 °F 52% 30.20 in 10.0 mi NNE 8.1 mph - N/A   Overcast
10:54 PM 45.0 °F 40.1 °F 30.0 °F 56% 30.22 in 10.0 mi NNE 9.2 mph - N/A   Overcast
11:54 PM 44.1 °F 39.5 °F 30.0 °F 58% 30.24 in 10.0 mi North 8.1 mph - N/A   Overcast